Wind_Speed
5 6 8 7 7 8 7 5 2 1 5 9 8 7 10 10 9 14 14 7 5 8 11 11 12 10 8 11 10 10 10 12 13 14 14 12 11 11 12 12 13 17 22 25 26 28 29 30 31 31 31 30 28 26 26 27 29 28 27 27 27 24 24 25 23 23 25 26 26 24 23 23 22 22 20 20 20 20 21 22 23 24 24 24 24 24
5 9 7 6 5 5 3 1 1 3 6 7 6 8 9 8 12 12 8 8 8 7 9 11 12 7 11 11 10 13 12 12 13 14 13 11 11 12 13 13 15 20 26 28 28 30 31 32 33 32 31 30 28 25 24 25 25 26 25 27 27 25 24 24 23 24 24 25 26 26 25 25 24 23 21 20 19 19 20 21 22 23 24 25 25 24
7 10 7 6 2 2 1 3 3 6 6 6 6 7 8 10 14 9 5 11 10 5 7 9 10 5 14 12 12 15 14 15 16 15 13 11 11 13 16 18 21 24 27 29 30 32 33 33 34 33 32 31 30 28 27 26 25 24 24 25 27 26 27 26 25 26 25 24 26 27 27 27 27 26 25 24 22 21 21 21 22 22 23 24 25 24
7 7 8 6 2 2 1 1 4 7 5 6 7 8 9 12 13 10 10 17 15 7 6 10 8 4 13 11 13 16 17 18 16 14 13 12 12 14 18 19 21 26 29 30 29 31 32 31 31 31 31 31 31 30 29 29 29 29 27 26 27 27 29 28 28 29 28 27 27 28 29 30 31 29 27 26 25 25 25 24 24 24 24 25 25 26
6 5 7 4 3 4 5 5 7 8 7 4 7 9 11 14 15 13 13 16 15 5 2 9 9 3 9 10 11 12 14 15 12 11 11 12 14 17 19 18 21 25 28 29 30 30 30 31 31 31 29 29 29 29 30 31 32 33 32 30 29 29 30 31 31 31 29 28 27 26 27 28 26 22 21 20 20 22 27 29 28 27 27 27 28 28
6 4 5 2 3 7 9 9 8 7 8 3 6 10 13 16 18 17 15 13 10 3 3 7 10 7 7 11 9 7 9 10 8 9 10 13 17 20 21 22 24 27 28 29 30 31 32 33 31 29 27 28 29 30 32 33 33 33 33 32 32 31 32 33 34 34 31 29 25 23 22 22 21 20 20 20 20 24 27 28 30 32 31 31 31 31
3 3 2 3 6 9 10 9 7 6 8 4 7 11 12 15 17 15 14 10 6 7 5 6 9 11 6 10 8 6 7 6 6 8 11 14 17 19 21 24 27 29 31 30 30 30 30 29 28 28 29 31 32 33 32 32 30 30 31 31 31 32 32 32 34 35 34 32 27 23 22 22 21 22 22 21 23 26 27 28 30 33 33 35 35 35
2 4 5 5 7 9 10 9 8 8 6 6 12 15 12 15 17 12 10 7 6 8 4 7 12 13 6 6 6 6 6 7 7 10 15 17 19 20 22 26 30 32 33 32 30 27 25 27 29 31 31 30 30 30 28 28 29 29 29 30 30 30 31 32 32 32 33 35 31 24 22 23 22 22 22 20 20 24 27 30 32 34 35 37 38 39
2 5 5 5 8 9 8 9 10 8 5 7 14 15 12 14 15 9 6 6 6 5 5 11 14 12 5 4 5 4 7 10 11 13 15 17 20 22 24 28 32 33 33 30 26 24 26 30 30 29 27 27 26 26 27 29 29 29 28 28 28 28 29 30 30 30 30 33 32 26 24 25 23 20 19 17 18 21 23 26 31 35 38 39 40 42
1 3 2 3 7 7 7 9 9 7 7 10 14 13 11 11 9 5 3 7 6 4 9 16 16 12 6 3 2 5 8 10 11 12 13 17 21 24 27 29 31 31 30 24 21 24 29 30 28 26 25 25 24 24 26 29 28 29 28 26 26 27 27 27 27 28 28 29 30 28 26 24 20 19 18 18 19 20 21 23 28 32 36 39 42 45
2 2 1 0 4 5 7 7 5 3 6 12 13 12 10 5 4 3 1 3 5 5 11 19 19 14 7 3 3 6 6 6 9 10 13 20 25 28 28 29 30 30 26 21 23 29 30 28 26 24 24 25 25 26 29 31 31 31 31 30 30 30 29 28 27 24 24 25 25 25 25 24 22 23 22 21 22 22 22 24 26 28 30 35 42 47
3 4 1 2 2 4 7 5 2 3 4 8 9 13 10 5 5 4 1 2 3 8 14 18 17 13 8 3 4 4 3 5 8 9 13 21 27 30 29 29 31 28 22 23 29 31 29 28 25 23 24 26 30 32 33 34 33 31 31 32 35 36 33 29 27 26 26 26 26 24 23 23 22 21 20 20 22 23 22 23 26 29 32 36 40 43
3 5 1 3 2 6 7 4 1 2 4 10 12 13 11 8 7 6 7 7 6 9 14 15 13 9 6 2 3 4 4 5 8 8 16 24 28 30 29 29 31 24 22 28 31 28 27 26 25 25 27 30 32 32 33 33 32 29 28 28 30 32 29 23 23 26 25 23 21 19 19 19 19 19 19 19 20 22 23 24 27 31 34 37 38 38
2 5 3 2 1 8 10 7 6 5 8 12 10 9 8 8 8 8 10 10 8 11 12 12 7 7 7 2 2 5 4 4 9 12 19 24 28 30 27 29 30 22 24 31 27 25 25 25 27 29 30 32 31 30 32 33 30 28 28 28 27 26 22 17 18 20 18 18 19 20 22 22 20 19 18 18 22 24 26 28 30 32 31 31 32 31
4 1 4 5 2 8 11 6 4 5 4 7 7 5 5 4 4 6 8 9 11 13 11 9 6 9 11 2 4 4 2 5 13 16 22 27 30 30 27 29 28 22 27 28 23 24 25 24 30 32 31 31 29 29 34 34 30 29 30 29 27 26 23 21 22 22 21 22 22 21 21 20 18 18 20 24 27 28 28 28 28 28 26 25 24 24
3 2 3 5 1 6 9 2 2 4 2 5 6 4 6 6 5 5 7 8 11 12 8 6 5 10 7 6 7 6 6 10 17 19 24 32 34 31 28 29 27 25 28 24 21 26 25 27 33 33 29 28 28 32 36 34 30 30 31 29 26 26 26 25 24 24 23 22 21 21 21 21 22 24 27 29 28 26 25 24 24 23 21 21 20 18
3 2 4 5 3 6 8 4 5 6 3 5 5 6 8 6 3 6 7 8 8 8 6 6 8 10 4 5 4 10 12 14 18 21 27 33 33 30 29 28 27 27 25 21 22 27 29 32 35 30 26 27 32 36 36 33 30 28 29 28 26 25 25 24 23 23 23 23 25 26 25 26 27 27 27 26 25 23 22 21 20 21 20 19 18 17
3 5 3 2 1 5 8 10 13 12 6 5 4 8 9 5 4 4 6 8 10 8 6 7 11 11 7 4 6 12 15 16 16 23 31 34 32 31 29 28 27 27 24 22 25 30 33 34 30 27 27 31 35 35 32 29 27 27 26 25 25 25 24 24 24 24 25 27 28 27 26 25 25 24 23 22 21 21 20 20 20 20 20 19 18 19
2 5 1 2 1 3 6 5 7 10 9 7 5 7 6 1 3 6 4 7 12 11 8 8 10 9 7 7 8 12 15 16 18 23 28 31 32 31 29 28 28 26 25 26 29 34 35 29 25 28 32 35 33 28 27 28 27 27 25 23 25 26 26 26 26 26 26 25 24 24 23 23 21 21 21 21 20 19 19 21 21 21 21 21 20 20
1 3 1 3 3 3 1 1 2 4 8 8 6 3 3 2 3 2 0 4 9 11 11 11 11 7 5 5 8 12 14 16 20 22 23 28 31 29 27 28 27 26 28 29 31 34 31 26 27 31 34 34 28 24 27 29 28 27 25 24 25 26 26 27 26 25 24 23 23 22 22 22 22 21 21 21 20 20 21 21 21 22 22 22 22 22
1 2 3 2 3 4 0 1 1 3 4 3 3 3 4 2 2 2 1 1 3 8 11 11 11 7 3 1 5 12 13 16 21 22 24 28 29 26 26 26 26 28 30 30 32 33 27 26 30 32 32 28 24 25 28 29 28 26 25 24 25 25 26 26 26 25 24 24 24 23 23 24 23 22 21 21 21 21 21 21 21 22 22 22 23 23
1 2 4 6 6 3 2 3 5 7 6 4 4 3 4 5 3 3 3 1 2 6 6 7 11 9 2 2 5 11 14 19 25 27 27 28 27 25 25 23 25 29 30 30 33 31 25 27 32 32 29 25 25 28 29 28 27 25 24 25 25 25 25 26 25 25 24 24 23 24 24 24 23 22 22 22 22 21 21 21 21 21 21 22 22 22
1 2 3 6 6 3 6 6 10 13 11 8 7 4 3 4 5 5 7 8 7 7 6 6 10 7 2 4 9 14 18 25 28 29 29 28 25 24 23 21 23 28 29 31 33 28 25 29 31 30 28 25 27 29 28 27 25 24 25 25 25 25 25 25 24 24 24 24 23 24 24 23 22 22 22 23 22 22 22 22 21 21 20 21 20 20
2 1 3 6 3 4 7 5 7 8 5 5 7 5 4 4 2 1 4 7 7 7 7 7 8 4 3 9 17 20 23 27 28 28 29 27 24 23 22 19 22 28 30 32 31 25 26 30 30 29 27 26 28 28 27 25 23 23 25 24 24 25 25 25 24 23 23 23 23 23 22 22 21 21 22 22 22 21 21 21 21 20 20 19 19 19
1 1 4 6 4 2 2 0 1 4 3 3 4 5 6 5 0 3 3 2 4 6 8 8 8 6 7 15 21 22 24 27 28 28 26 24 23 22 21 19 23 29 31 31 29 25 28 31 29 29 27 25 27 27 25 23 22 23 24 24 25 24 24 25 23 22 22 23 23 22 21 21 21 21 21 22 22 22 22 22 22 22 21 20 19 19
2 2 3 4 6 6 5 5 5 6 5 1 4 4 4 3 1 1 3 3 5 7 9 8 9 11 15 18 19 20 22 24 28 29 26 22 22 21 20 21 25 29 30 31 29 27 29 30 29 29 27 24 25 24 23 22 21 22 23 23 24 23 24 24 22 22 23 22 22 21 21 21 21 22 23 23 23 23 23 24 23 22 22 21 21 20
0 1 1 1 2 5 8 10 11 10 9 7 1 3 3 3 2 1 4 6 8 11 9 8 9 16 20 20 20 20 21 21 25 29 29 25 23 22 20 21 26 29 28 28 27 27 29 29 28 29 26 24 23 22 21 21 21 22 23 22 22 22 23 23 23 23 22 21 22 23 24 25 24 25 25 25 25 25 25 25 23 22 22 21 21 21
1 2 2 3 7 9 11 15 15 11 10 10 6 2 3 2 2 1 3 7 10 10 6 6 12 17 18 18 20 19 20 21 24 28 29 26 24 22 20 22 27 28 26 26 26 27 29 29 28 29 26 23 22 23 23 23 22 22 23 22 21 21 23 24 23 23 23 24 25 26 28 29 28 28 28 27 28 27 27 26 24 23 21 20 20 20
1 3 1 2 7 11 12 14 14 11 8 7 6 5 5 3 4 4 6 9 9 7 9 15 18 18 17 16 17 18 19 21 24 27 25 23 22 20 20 23 28 29 27 26 27 28 28 26 26 28 27 24 24 26 27 27 26 26 25 23 22 23 24 24 24 24 26 27 27 29 31 31 31 31 30 30 30 29 28 28 26 24 22 20 19 18
1 2 1 1 8 11 12 11 9 7 7 6 7 7 6 5 6 8 10 11 10 11 16 19 19 16 14 13 15 20 22 21 24 25 22 20 19 19 20 24 27 29 28 27 28 28 27 24 24 25 25 25 29 32 30 29 30 31 29 27 26 27 25 25 26 27 27 28 30 31 32 32 32 32 32 32 32 30 30 28 26 25 23 21 20 18
1 1 2 0 5 8 6 4 4 5 6 7 7 8 7 6 8 9 10 10 9 12 14 15 15 12 8 12 19 24 22 20 23 26 23 20 19 19 21 25 27 28 27 27 28 28 25 23 22 23 26 28 31 32 31 32 33 33 31 29 29 28 26 26 27 28 29 31 32 32 33 33 32 32 32 32 31 30 29 28 26 25 23 22 20 19
1 1 1 1 5 5 2 2 3 2 2 4 7 9 9 8 7 7 8 8 8 11 13 12 11 9 9 17 22 23 22 22 24 25 24 22 20 19 22 26 29 28 26 27 28 27 24 21 21 26 31 31 28 29 32 35 35 34 33 31 30 28 27 28 28 30 31 32 32 33 33 34 33 33 32 31 30 29 28 27 26 25 23 22 20 18
0 2 1 1 5 4 1 7 6 2 2 2 3 7 10 8 7 9 9 9 9 9 9 8 7 9 15 19 18 19 22 23 23 25 24 22 20 19 22 26 28 28 27 27 26 25 22 20 23 31 33 29 27 29 33 34 35 35 34 31 30 29 29 29 30 31 32 32 33 33 33 33 33 32 31 30 29 28 27 26 25 24 23 22 20 18
1 1 1 0 3 5 7 11 5 3 1 2 3 6 10 7 7 10 11 11 8 8 7 8 9 12 15 15 15 18 22 22 24 26 22 17 16 19 23 24 24 27 29 26 24 22 20 22 28 33 31 28 29 32 33 33 34 34 33 31 30 30 30 31 32 32 33 33 32 32 32 32 32 31 30 29 29 28 27 26 25 23 22 21 20 19
2 1 1 1 2 5 7 8 4 1 2 2 5 7 8 7 9 12 14 12 8 10 10 10 11 13 13 13 16 20 22 23 26 25 17 10 10 19 24 23 23 27 28 24 22 20 21 26 32 33 30 29 31 32 33 33 34 34 32 30 30 31 32 32 32 33 33 32 32 31 31 31 30 29 29 28 28 28 28 27 26 24 22 21 19 19
1 1 1 1 2 3 4 4 4 5 2 5 5 5 6 8 9 9 10 8 8 10 9 9 12 13 12 12 15 18 22 25 25 18 9 6 10 19 22 20 24 30 29 23 20 20 23 29 31 29 28 29 31 31 32 33 33 33 32 31 31 32 33 33 33 34 33 32 31 30 30 30 29 28 27 26 27 28 28 27 26 23 21 20 20 20
2 2 1 1 0 2 4 2 4 7 4 3 4 4 4 5 5 4 5 4 8 10 8 8 12 12 10 11 12 14 20 22 17 8 5 5 15 20 19 19 25 33 33 24 18 21 26 30 29 27 27 29 30 30 31 32 32 32 32 32 32 33 33 34 34 34 33 31 30 29 28 28 28 27 27 25 25 26 27 26 24 21 20 20 20 20
2 2 2 2 1 1 3 4 3 5 4 1 4 4 4 4 2 1 3 4 6 9 7 8 11 11 10 11 11 12 14 12 7 2 2 11 19 21 21 22 26 33 34 24 20 25 30 30 29 28 28 29 29 29 30 31 31 32 32 32 33 34 34 35 35 34 32 30 29 27 27 27 26 26 26 24 23 24 25 24 21 20 20 20 20 20
2 1 0 1 2 0 1 3 3 4 3 2 6 5 4 4 6 6 3 2 5 8 7 7 11 12 11 12 13 12 9 6 5 8 13 20 23 22 23 26 28 33 33 25 22 28 31 30 30 29 28 29 29 29 29 30 30 31 31 32 33 34 35 35 34 33 31 29 27 26 25 26 25 24 24 23 21 22 22 21 20 18 19 20 21 20
2 0 1 3 2 1 2 2 3 5 4 3 6 4 3 9 11 4 4 2 4 5 4 8 12 13 11 12 12 9 5 4 9 17 24 27 26 25 26 28 30 32 30 25 24 29 31 30 30 30 29 29 29 29 29 29 30 30 31 31 32 33 34 35 34 32 30 29 27 24 23 24 24 23 22 21 20 20 19 19 18 18 17 19 20 20
2 0 1 2 2 2 3 3 4 5 3 4 6 3 5 8 6 2 6 6 4 6 11 13 14 13 12 12 10 7 9 13 17 23 27 27 27 28 27 27 29 29 25 23 25 30 31 31 30 30 29 29 29 29 29 29 29 30 30 31 32 33 33 33 33 32 30 28 26 23 21 22 22 22 21 19 19 19 17 16 16 17 17 18 19 20
1 1 1 1 1 2 3 3 5 5 2 7 7 4 5 4 2 4 7 13 16 16 17 17 16 15 14 14 12 15 20 23 22 23 25 26 27 28 27 27 29 27 22 22 25 29 31 31 30 29 28 27 28 29 29 29 29 29 30 31 31 32 32 32 32 31 30 28 25 22 20 20 20 20 19 18 17 17 15 14 14 15 16 18 18 19
1 1 2 2 2 1 2 3 5 5 3 11 8 3 5 5 6 9 12 17 19 18 18 19 18 18 17 17 18 21 24 25 23 23 25 26 26 25 25 27 27 25 22 24 27 29 30 30 30 29 27 27 28 28 28 29 29 29 29 30 30 31 31 31 31 30 29 27 24 21 20 19 18 18 18 17 16 15 15 13 12 13 15 16 18 19
3 2 2 2 2 1 2 2 2 3 5 13 9 4 6 9 13 15 14 13 15 17 19 19 19 19 19 19 21 22 23 23 23 24 24 25 24 24 24 25 25 24 24 25 27 28 29 30 29 28 27 27 27 27 27 27 28 29 29 29 30 30 31 30 30 29 28 26 23 22 20 19 18 17 16 16 15 14 14 13 12 13 14 15 18 21
5 4 1 2 4 3 4 7 8 7 7 11 13 13 13 15 18 17 15 14 15 17 19 19 20 20 20 20 21 22 22 22 23 23 24 24 23 23 23 23 24 25 26 26 27 27 28 29 29 29 28 26 26 27 26 26 27 28 28 29 30 30 31 30 30 29 28 25 23 21 20 18 18 17 15 14 14 14 14 13 13 13 15 17 18 20
5 5 1 1 2 5 13 19 22 23 24 23 21 19 17 18 19 17 15 15 16 18 19 19 19 20 20 20 21 21 22 22 22 23 23 23 22 21 21 22 22 23 24 26 27 27 27 28 28 29 28 27 26 26 26 25 26 27 28 29 29 29 30 30 29 29 28 25 23 22 20 19 18 17 16 15 13 12 12 13 14 14 16 19 18 18
5 7 5 3 1 3 7 9 12 16 20 18 16 17 19 20 20 17 15 16 17 18 18 18 19 19 20 20 21 21 21 21 21 21 22 22 21 20 20 21 21 21 23 24 26 27 27 28 28 29 29 28 27 26 26 25 25 26 27 28 28 29 29 28 28 28 27 25 24 23 22 20 18 17 17 16 14 12 11 12 13 14 16 18 17 18
3 6 6 5 6 6 8 9 13 19 22 21 22 23 23 22 19 17 16 17 17 18 18 18 18 19 19 20 21 21 21 20 20 20 20 20 20 19 19 20 20 20 21 22 23 25 26 27 28 29 29 29 29 28 26 26 26 26 26 27 28 29 28 27 27 27 25 25 25 25 23 22 20 18 17 16 15 14 14 15 15 14 14 15 16 18
5 5 4 4 6 9 12 16 19 19 20 22 24 24 22 20 17 16 17 17 17 18 18 18 18 18 18 20 20 21 21 20 19 19 19 18 18 18 18 19 19 20 20 21 21 23 24 26 27 27 28 28 29 28 27 27 27 26 26 27 27 28 28 28 27 26 24 25 25 25 24 23 22 20 19 17 15 13 13 15 16 15 13 13 12 13
6 4 4 3 3 6 7 8 9 7 9 14 17 17 17 17 17 17 18 17 17 17 17 18 18 18 18 19 19 20 21 21 19 19 18 17 16 17 17 17 18 18 18 19 20 21 22 23 24 25 26 27 27 27 27 27 28 28 27 27 27 27 27 28 28 26 25 24 25 25 24 24 23 22 21 20 18 15 13 12 11 12 12 12 9 7
15 10 9 7 6 8 11 13 12 11 14 18 19 16 16 17 17 18 18 17 16 16 17 18 18 18 18 18 18 18 20 20 19 19 18 16 15 16 16 16 16 16 17 18 18 19 20 21 22 23 23 24 25 26 26 27 27 28 28 27 27 26 25 26 27 27 25 25 25 24 23 24 23 23 22 21 20 19 17 14 10 9 10 10 8 6
Wind_Direction
11 50 46 20 8 3 12 35 43 310 280 292 303 313 317 318 326 328 327 336 5 337 323 332 325 327 40 56 49 72 94 104 109 107 100 91 78 55 35 26 11 358 352 351 350 348 346 344 343 341 340 339 336 334 333 335 338 339 336 331 329 321 316 320 320 321 328 336 338 337 339 339 336 335 331 327 321 316 312 308 305 301 297 292 287 284
34 54 37 4 352 339 353 117 278 291 286 307 326 328 324 330 332 319 309 325 343 334 317 327 325 347 71 68 67 82 86 93 103 104 96 79 57 30 12 3 353 347 344 344 344 344 344 341 340 337 335 333 328 323 321 320 322 324 325 325 324 317 310 309 310 313 318 326 332 332 333 334 333 333 331 327 322 317 312 309 308 306 303 299 293 288
52 52 19 355 331 260 201 189 301 320 318 343 350 337 338 342 335 321 308 326 331 318 318 329 320 24 83 79 72 79 81 85 89 91 84 58 33 10 357 350 344 343 340 338 338 340 340 338 336 333 330 328 325 321 318 315 313 311 311 314 315 312 307 304 303 306 307 312 320 322 323 325 326 326 326 325 323 319 316 312 310 307 307 306 302 296
51 34 3 346 292 281 266 209 334 338 338 1 7 355 343 342 337 327 328 327 318 293 301 315 309 71 96 91 77 79 83 83 79 73 61 35 14 353 348 345 339 338 335 334 333 333 333 330 329 326 322 322 321 319 318 317 316 313 309 308 308 305 302 300 298 300 300 301 305 310 314 316 319 321 323 323 321 320 318 317 314 310 308 308 308 305
73 14 344 305 268 339 358 15 13 359 351 15 34 10 339 335 331 314 316 320 311 279 273 320 323 53 98 98 87 84 83 79 70 56 38 12 357 347 346 343 336 334 330 328 327 327 328 327 325 323 319 319 319 319 319 317 316 313 310 308 308 305 301 299 297 295 294 294 296 300 305 309 312 313 313 312 311 312 314 316 317 315 313 312 311 310
70 13 344 317 346 3 9 18 23 357 340 25 54 11 335 322 317 312 320 324 319 349 38 356 340 351 62 90 91 84 78 68 56 42 20 1 353 348 346 342 338 336 331 327 325 325 327 327 328 328 327 325 321 319 317 316 314 311 310 308 308 306 302 300 299 296 289 286 288 290 293 298 298 297 299 299 300 305 309 311 313 315 316 315 315 313
54 20 22 22 359 7 16 17 28 1 339 6 14 349 323 309 311 319 325 323 331 340 2 42 357 333 25 78 76 73 70 54 45 28 8 360 353 347 344 342 338 334 332 329 326 325 328 333 336 334 329 325 321 320 319 319 317 315 313 310 308 307 304 301 301 299 291 284 283 282 285 290 290 291 292 293 296 301 303 304 307 310 312 314 315 316
14 11 21 9 358 16 18 2 6 2 342 354 346 331 314 309 314 319 316 309 329 327 331 37 358 326 345 67 80 77 60 40 26 9 3 2 356 347 341 340 337 332 330 328 327 331 337 339 337 333 330 329 326 328 330 328 326 322 318 314 311 309 306 302 300 299 291 283 282 281 284 285 286 286 285 286 289 293 297 300 302 304 307 310 312 315
11 14 12 356 11 21 8 346 342 348 354 345 330 316 304 307 308 304 303 311 324 326 335 359 350 329 338 89 118 72 37 24 8 360 0 1 356 347 337 334 332 329 327 325 330 341 342 338 336 335 336 336 335 337 337 335 331 328 325 322 320 317 314 308 303 297 288 282 281 283 285 284 284 284 283 284 285 289 294 296 299 301 303 306 307 311
36 32 358 341 20 13 341 330 329 355 8 324 308 304 296 298 301 297 328 335 327 336 348 352 350 336 338 99 111 16 23 12 357 357 356 351 348 342 334 329 328 327 327 329 338 341 337 336 336 335 336 337 338 340 340 338 334 331 330 329 330 329 326 321 314 306 294 286 284 285 287 284 282 283 283 287 289 292 295 295 298 300 301 303 303 307
121 155 183 51 38 352 307 305 318 17 340 303 306 325 316 304 329 325 356 342 329 343 352 352 347 333 332 49 52 20 24 8 351 352 351 343 338 335 332 332 331 331 333 338 338 334 332 333 333 334 337 339 337 334 334 332 327 324 321 320 322 323 325 325 323 317 307 297 290 286 281 275 275 280 286 293 295 298 300 299 300 300 300 301 301 305
135 163 120 142 95 328 283 268 229 195 287 317 342 351 344 353 357 335 339 8 339 342 349 351 343 327 327 0 63 42 25 6 355 351 348 339 335 333 334 336 336 335 337 338 333 330 332 334 335 336 337 336 333 330 330 329 325 322 318 316 315 315 318 321 316 313 311 304 296 286 277 274 277 285 294 301 301 302 303 302 301 301 301 301 300 302
140 142 70 176 164 347 329 322 337 200 348 6 9 1 358 356 348 345 349 348 335 333 342 344 330 324 348 48 91 30 14 8 357 352 345 339 336 336 335 337 336 335 336 334 332 332 335 336 338 337 334 334 334 333 334 334 332 330 328 327 325 323 324 323 315 310 308 303 298 290 286 289 294 297 302 305 303 303 302 300 300 300 300 299 298 297
63 126 83 147 171 4 8 12 4 354 6 16 13 4 1 350 342 342 340 336 323 319 338 357 343 327 350 60 99 15 17 5 350 345 342 340 339 336 334 336 334 331 333 334 334 336 336 337 337 334 333 336 338 339 340 338 335 334 334 333 333 334 335 336 334 327 319 313 310 307 304 304 305 305 306 306 303 302 300 297 296 297 296 295 293 290
2 43 43 42 357 3 22 41 8 327 349 25 14 348 349 355 342 324 322 322 315 310 332 20 31 340 338 24 103 34 355 334 338 338 339 340 340 336 334 336 335 332 334 335 337 337 335 336 336 332 333 337 339 339 339 337 333 331 332 331 330 332 334 337 338 335 329 324 319 316 314 312 311 309 307 305 304 302 298 296 295 295 293 289 288 284
324 256 45 52 63 9 20 52 302 299 297 7 353 340 348 342 324 303 284 284 298 305 325 8 3 343 352 124 105 29 350 340 338 339 341 340 339 338 337 338 337 335 336 337 340 339 335 334 334 332 333 337 338 336 335 334 331 330 331 332 330 329 329 330 330 330 330 327 323 320 315 313 310 308 307 306 305 302 299 297 295 294 292 288 286 283
324 292 24 52 102 47 41 74 41 18 354 342 351 354 335 315 338 343 298 286 308 316 330 341 330 339 359 137 64 3 348 345 341 341 343 341 340 340 339 339 339 338 338 340 341 340 335 332 333 335 336 336 334 332 332 332 331 331 332 333 333 332 332 332 330 330 327 323 320 317 313 312 311 310 309 307 305 304 301 299 298 296 293 288 284 282
316 294 339 40 97 72 90 100 76 58 19 349 2 340 314 223 150 20 323 324 338 327 324 333 328 332 336 335 359 351 342 343 344 343 343 342 342 341 339 340 339 339 340 338 338 339 336 334 336 340 337 333 331 332 334 335 334 334 334 335 336 336 335 332 329 326 324 321 319 318 316 315 314 313 311 309 307 305 303 301 299 297 292 288 285 284
279 286 311 132 310 33 115 124 77 67 61 67 53 347 338 340 347 354 351 343 341 327 318 328 327 330 332 326 335 342 341 343 344 343 343 343 343 341 339 338 338 341 340 336 336 338 339 340 341 339 335 332 332 334 338 338 335 334 333 332 333 333 331 330 328 327 327 326 323 322 320 318 317 316 314 311 308 304 302 301 298 296 291 287 286 285
216 289 331 156 256 310 117 225 301 63 80 97 94 30 34 28 318 320 45 345 340 324 314 321 321 325 332 320 330 342 346 346 344 342 341 341 341 340 338 337 338 341 340 337 336 337 338 341 339 336 336 337 336 336 338 337 335 334 333 331 330 329 330 331 331 330 330 330 327 323 323 321 319 317 314 311 308 304 302 301 299 296 292 288 285 283
197 254 288 267 260 268 23 63 78 69 56 63 56 30 29 32 201 184 182 65 355 322 316 318 308 310 346 8 346 350 349 347 344 341 338 338 339 339 338 336 337 339 338 338 338 336 335 337 336 336 337 340 341 339 338 337 336 335 335 334 332 330 331 332 333 332 329 328 326 324 323 321 319 317 313 310 307 303 301 299 299 297 293 290 287 285
225 231 276 306 314 321 72 92 107 96 79 51 43 45 32 20 9 354 335 54 0 308 294 289 290 302 346 98 9 359 349 343 343 340 337 337 338 338 337 335 337 339 337 338 338 337 335 334 336 337 338 340 341 340 339 339 338 337 336 336 334 332 332 332 331 331 328 326 325 323 322 320 319 316 312 310 306 302 299 298 297 297 295 291 288 286
258 250 259 285 302 29 84 103 112 113 111 93 82 86 62 44 37 12 331 325 328 300 272 271 286 298 82 69 7 360 347 339 341 341 338 337 337 337 336 335 338 339 337 338 338 336 335 334 335 337 338 339 339 339 339 339 336 336 335 334 333 332 332 332 330 328 327 325 324 323 322 320 319 316 314 312 308 304 301 299 298 296 294 291 289 287
184 222 281 280 269 113 109 113 127 144 149 89 75 64 65 76 54 329 292 313 315 298 303 302 287 284 44 1 349 347 341 336 339 342 340 337 336 337 336 335 338 339 338 338 337 335 335 336 337 338 337 338 340 339 337 336 335 335 335 334 332 332 332 332 330 328 327 325 324 323 322 321 320 318 316 314 310 307 305 302 300 297 293 291 289 286
228 320 324 320 333 60 116 23 228 227 272 38 77 68 80 102 120 249 220 265 286 288 312 309 289 292 327 337 338 338 337 336 338 341 341 338 336 336 336 335 336 339 339 339 337 334 335 337 337 337 337 337 338 337 335 334 334 334 334 334 333 331 331 332 330 328 327 326 325 323 322 323 321 319 318 315 313 310 308 306 303 299 296 292 290 287
295 330 349 8 1 341 321 313 309 311 324 8 117 98 89 106 112 256 265 296 302 308 309 287 280 301 316 328 335 337 337 337 337 339 340 338 337 336 336 335 337 338 338 339 337 334 336 337 335 336 337 335 335 335 336 335 333 333 333 333 333 331 331 331 330 330 330 328 326 324 324 324 323 322 322 319 318 316 314 311 307 303 299 294 292 289
161 271 268 201 259 282 285 285 296 313 310 295 295 115 129 133 146 233 309 315 310 311 291 244 271 304 313 325 334 336 337 335 335 338 339 337 336 337 335 334 336 337 337 337 336 335 335 334 334 335 335 333 333 335 335 335 334 334 333 332 332 332 331 332 333 333 332 330 328 330 332 330 328 328 327 325 325 325 324 322 319 313 306 299 294 290
184 255 225 214 239 253 270 279 288 298 290 285 289 205 175 168 163 200 295 295 301 313 293 268 300 307 306 320 331 332 333 332 332 336 337 334 332 332 330 331 334 336 337 337 336 335 335 332 332 334 333 331 333 335 337 338 336 335 335 332 331 333 335 336 335 333 334 336 336 337 339 338 336 335 334 333 333 332 331 332 331 327 321 313 305 297
268 270 161 215 263 266 267 271 276 280 274 269 254 216 203 202 196 212 251 271 285 292 283 293 306 304 300 315 328 327 327 328 327 328 329 327 326 326 328 331 334 337 338 338 337 336 334 331 330 332 333 332 334 338 340 340 339 339 339 336 335 338 339 337 336 337 340 342 341 342 344 343 341 340 340 340 340 339 338 338 338 336 333 328 321 315
248 254 104 253 282 283 275 267 262 255 247 235 221 210 205 222 236 244 259 268 262 253 266 286 296 294 297 312 320 322 324 322 321 323 325 326 328 328 329 332 335 335 336 337 336 334 333 330 328 329 331 334 339 341 340 339 340 341 341 339 342 345 343 339 339 341 343 344 345 346 347 346 345 345 345 345 345 345 344 344 344 342 340 337 333 329
278 336 59 96 289 289 270 243 224 226 248 253 229 205 205 238 255 256 262 268 264 262 273 291 295 290 302 321 319 319 323 322 323 327 329 330 330 328 329 334 335 333 333 334 334 333 330 327 327 329 333 337 340 340 340 339 340 341 340 341 344 346 343 340 340 342 344 347 348 348 348 348 348 349 348 348 348 349 349 349 349 347 345 343 341 338
272 318 55 70 306 290 193 226 262 206 228 261 238 220 214 227 254 266 266 266 274 284 290 299 303 302 322 327 320 319 325 328 329 330 330 329 328 327 331 335 336 333 331 332 332 332 329 326 327 333 338 339 337 337 339 340 340 340 340 342 344 344 342 340 342 344 346 348 349 349 349 349 348 349 350 350 351 352 353 353 352 351 349 347 347 344
131 292 304 40 298 284 344 322 310 136 137 261 235 217 207 213 262 285 281 270 264 274 286 291 291 301 318 322 320 323 329 330 328 326 325 322 320 324 329 332 333 332 329 328 329 329 327 325 329 335 338 337 335 336 339 340 340 339 339 342 343 342 341 341 344 346 347 348 350 350 350 349 348 349 350 351 352 354 356 356 355 353 351 351 353 352
143 268 292 114 277 286 319 316 292 170 249 327 110 158 181 201 276 290 291 284 256 228 238 257 274 299 315 318 318 321 324 322 317 315 313 309 311 321 326 326 328 329 328 327 327 327 325 326 332 337 338 336 336 338 339 339 339 338 339 342 342 341 341 343 346 347 346 348 350 350 350 349 348 348 349 350 352 355 357 357 357 357 356 357 360 359
150 217 206 148 253 279 316 322 312 6 29 102 135 162 189 225 268 272 275 273 235 211 226 251 281 300 304 306 311 314 314 313 311 308 302 288 303 323 324 321 324 329 331 329 327 326 326 329 335 338 337 337 338 339 340 339 338 337 340 343 342 340 342 344 345 346 346 347 349 350 350 349 348 348 349 351 352 355 356 357 359 1 0 2 5 3
201 208 204 208 239 277 328 356 338 329 12 141 171 205 222 256 279 280 276 253 202 205 228 257 288 297 294 297 304 307 310 310 306 299 279 265 315 328 325 320 323 329 332 329 324 325 328 331 335 335 334 336 339 340 340 339 337 337 341 344 343 341 343 344 345 345 346 346 348 350 350 349 347 347 349 352 353 353 354 356 359 3 2 3 7 7
211 194 231 283 202 318 314 282 255 286 299 155 176 198 213 267 306 321 300 252 191 195 221 270 295 301 297 295 298 301 305 305 300 275 216 284 327 331 325 319 322 327 331 328 320 325 332 335 336 335 335 338 340 340 339 337 336 338 342 345 344 343 344 344 344 345 345 346 348 350 349 348 347 346 348 353 354 351 351 354 358 2 2 3 6 9
186 231 275 291 299 65 313 299 279 293 309 145 162 173 196 243 243 179 271 264 182 187 219 274 299 311 314 310 311 310 303 300 306 308 286 320 328 329 325 323 323 328 332 330 325 331 336 338 338 338 340 341 340 340 339 337 337 340 343 344 344 344 345 344 344 345 345 346 348 349 348 346 347 346 347 351 354 349 349 353 358 0 1 2 5 8
170 271 213 240 270 193 298 316 298 275 293 133 152 177 210 198 159 154 229 261 175 193 231 284 308 319 324 321 322 325 322 319 326 327 324 325 325 324 325 326 328 331 334 332 331 335 338 339 339 341 343 343 340 339 339 338 339 341 342 343 344 344 344 343 344 344 345 346 348 348 347 345 345 346 345 348 352 348 347 353 358 359 358 360 3 5
155 23 204 223 257 185 185 267 256 251 267 152 159 184 159 147 149 159 306 323 156 194 273 315 321 322 323 323 325 329 333 312 301 310 318 321 321 323 327 329 331 333 335 334 336 338 340 341 343 344 346 344 340 339 339 339 340 341 342 342 343 344 343 342 342 344 345 347 347 347 346 343 343 345 344 346 349 347 349 355 357 357 356 357 359 3
161 171 240 249 260 194 200 255 266 261 258 163 163 165 137 146 163 269 323 338 343 324 322 323 321 320 318 317 315 299 296 298 296 304 314 318 320 326 331 332 333 335 335 336 338 340 342 344 346 346 346 345 341 339 339 339 339 340 341 342 343 342 341 340 342 345 346 346 345 346 345 343 343 343 343 345 346 343 349 359 357 354 354 354 356 1
174 179 217 237 244 201 195 237 263 273 222 161 160 165 166 181 288 314 311 314 314 315 318 316 315 316 313 307 299 294 302 309 308 309 315 318 322 327 332 335 336 337 338 339 340 342 343 346 348 348 348 346 342 340 339 338 338 339 340 342 342 340 339 340 343 346 346 345 344 345 344 344 345 343 342 345 343 340 346 356 357 353 353 353 355 0
158 233 261 227 198 211 243 252 290 315 184 165 162 157 178 205 293 305 300 303 303 304 310 310 309 312 310 305 304 304 308 314 317 316 318 321 324 329 333 336 337 337 339 343 345 345 345 345 348 350 350 347 343 341 340 338 337 339 340 341 340 338 338 341 344 346 346 344 344 344 344 346 347 346 346 345 343 341 344 349 354 356 355 354 356 1
183 200 276 259 186 216 269 242 304 359 162 174 186 233 234 246 280 291 288 288 292 299 306 306 305 308 309 306 308 311 312 315 318 318 320 322 326 329 332 337 338 337 340 346 349 348 347 345 347 349 351 349 345 343 341 338 337 339 340 340 339 338 339 341 343 345 346 345 344 343 344 347 348 350 351 348 346 343 341 344 351 354 356 359 1 2
194 182 271 276 212 225 273 262 266 283 255 232 245 262 267 271 281 284 279 276 283 293 299 300 302 307 310 309 310 312 314 316 317 318 319 322 325 327 332 338 340 339 342 348 350 351 349 348 347 348 351 351 348 346 344 340 339 339 339 340 339 339 339 341 342 344 347 347 346 345 345 346 348 352 355 356 354 347 342 345 348 350 360 5 1 0
210 181 174 264 235 279 277 262 260 269 273 269 266 266 270 277 280 279 274 273 282 291 295 298 303 307 310 311 311 311 314 317 317 317 318 320 323 326 330 336 340 343 344 347 350 352 351 350 349 348 350 352 351 349 347 344 342 341 340 339 339 339 339 340 342 345 347 348 347 348 348 347 349 353 358 2 4 356 349 348 344 346 0 3 357 360
209 189 203 229 244 300 275 243 237 255 265 266 263 262 269 276 276 272 269 274 284 292 294 297 304 309 311 312 310 310 314 317 316 315 316 318 321 325 330 335 340 344 345 347 350 351 351 351 351 349 350 351 353 352 350 348 346 344 341 340 339 338 338 340 343 345 346 348 350 350 349 347 349 354 358 1 5 5 1 354 346 348 360 358 354 0
163 177 214 233 217 230 261 268 266 268 268 266 266 267 270 272 270 266 268 276 284 289 292 297 303 307 309 312 311 310 312 315 314 312 313 316 319 323 328 332 337 342 345 348 350 350 351 351 351 350 350 351 352 353 353 352 351 348 345 342 340 339 339 341 344 345 347 351 354 351 348 348 349 352 355 356 1 5 4 358 354 360 7 360 354 357
150 176 203 218 232 251 267 273 273 274 271 264 263 266 266 265 265 265 268 275 282 286 290 295 300 304 307 310 311 309 311 313 312 309 310 314 317 321 325 329 335 340 344 347 350 351 352 351 350 351 351 351 352 353 354 355 355 353 350 346 343 341 341 341 342 345 350 354 355 351 349 348 349 349 350 351 356 4 8 4 357 359 7 3 354 352
169 189 173 168 257 263 255 252 255 270 276 269 269 270 266 264 264 263 266 273 279 283 287 292 297 301 305 308 310 309 309 311 310 307 308 311 314 317 321 327 333 339 342 345 349 351 351 350 351 352 352 352 352 353 355 357 358 356 354 351 347 345 343 341 341 345 351 356 355 352 350 349 348 348 348 349 352 360 12 17 6 358 2 4 357 349
202 207 187 186 232 255 263 268 262 254 265 275 281 278 270 268 267 264 267 274 275 277 283 288 291 297 301 305 307 307 306 308 307 305 306 310 313 314 318 323 330 335 339 343 347 349 350 351 351 352 353 352 352 354 357 359 359 358 357 356 352 350 346 343 342 345 350 354 354 353 352 350 349 348 349 351 354 355 360 10 18 19 16 11 3 357
Height
1555 1555 1562 1568 1571 1573 1574 1575 1574 1574 1573 1570 1566 1565 1563 1559 1555 1553 1549 1546 1548 1548 1542 1540 1539 1536 1544 1552 1554 1555 1555 1557 1560 1561 1564 1565 1566 1566 1565 1564 1563 1561 1559 1557 1555 1553 1551 1549 1546 1544 1541 1539 1536 1535 1533 1530 1529 1527 1525 1524 1522 1521 1518 1516 1514 1512 1509 1507 1504 1502 1500 1498 1496 1495 1494 1493 1492 1492 1491 1490 1489 1488 1488 1487 1486 1485
1554 1560 1573 1577 1576 1577 1577 1577 1576 1573 1571 1567 1565 1564 1560 1558 1556 1552 1551 1547 1547 1549 1542 1539 1538 1538 1548 1555 1555 1557 1557 1559 1561 1563 1566 1566 1567 1567 1566 1565 1562 1560 1558 1555 1554 1551 1549 1546 1544 1542 1539 1537 1535 1533 1531 1528 1526 1524 1523 1521 1519 1518 1517 1514 1512 1510 1508 1505 1502 1500 1498 1497 1495 1493 1492 1491 1490 1489 1489 1488 1487 1486 1485 1484 1483 1482
1556 1567 1577 1578 1578 1578 1577 1576 1574 1570 1568 1565 1564 1564 1561 1560 1555 1549 1549 1548 1548 1548 1542 1539 1539 1540 1552 1557 1557 1560 1560 1562 1564 1565 1567 1567 1567 1567 1565 1564 1561 1559 1557 1554 1552 1549 1547 1544 1541 1539 1537 1535 1533 1530 1528 1526 1524 1522 1520 1518 1516 1515 1513 1512 1510 1508 1506 1503 1501 1499 1497 1495 1494 1492 1491 1489 1488 1487 1486 1486 1485 1484 1483 1481 1479 1478
1563 1573 1578 1578 1578 1576 1574 1574 1572 1569 1566 1565 1566 1566 1565 1563 1561 1554 1548 1547 1546 1545 1543 1541 1537 1540 1554 1559 1560 1565 1564 1565 1568 1567 1568 1568 1567 1566 1564 1563 1560 1557 1555 1551 1549 1546 1544 1542 1539 1538 1535 1533 1531 1529 1527 1525 1523 1521 1518 1516 1514 1512 1509 1508 1506 1504 1502 1500 1499 1497 1495 1493 1491 1489 1488 1487 1485 1484 1483 1483 1482 1481 1480 1478 1476 1475
1573 1578 1578 1578 1577 1574 1571 1570 1571 1570 1565 1565 1568 1571 1568 1564 1564 1560 1552 1548 1542 1540 1544 1541 1533 1535 1550 1560 1563 1567 1568 1567 1569 1568 1568 1567 1566 1565 1563 1562 1560 1557 1555 1551 1548 1546 1544 1542 1539 1538 1536 1533 1531 1529 1527 1524 1522 1519 1517 1514 1512 1510 1507 1504 1503 1501 1499 1497 1495 1494 1492 1490 1489 1487 1486 1485 1484 1483 1481 1480 1479 1478 1477 1475 1474 1472
1575 1579 1578 1577 1575 1571 1569 1568 1571 1573 1566 1564 1568 1571 1570 1565 1562 1558 1553 1550 1541 1538 1542 1541 1539 1537 1545 1561 1566 1567 1569 1568 1568 1567 1566 1567 1565 1565 1563 1561 1560 1557 1555 1552 1549 1546 1543 1541 1538 1536 1534 1532 1530 1528 1525 1522 1520 1517 1515 1512 1510 1508 1505 1502 1500 1498 1496 1494 1493 1491 1490 1489 1487 1486 1485 1484 1482 1480 1479 1477 1476 1475 1474 1472 1470 1469
1577 1579 1578 1577 1574 1570 1569 1568 1572 1575 1567 1563 1567 1569 1568 1564 1560 1555 1553 1552 1546 1543 1542 1541 1548 1543 1544 1563 1569 1568 1571 1569 1568 1568 1566 1566 1565 1565 1564 1561 1559 1556 1553 1551 1547 1545 1542 1539 1537 1534 1533 1531 1528 1525 1522 1520 1517 1515 1513 1510 1508 1505 1503 1501 1498 1496 1494 1491 1490 1488 1487 1486 1484 1483 1482 1481 1479 1477 1476 1475 1473 1472 1470 1469 1467 1466
1578 1578 1577 1577 1573 1570 1571 1570 1571 1574 1569 1566 1567 1567 1566 1561 1555 1553 1554 1551 1545 1545 1540 1538 1547 1543 1545 1566 1572 1569 1572 1569 1568 1568 1566 1567 1566 1565 1564 1561 1559 1555 1551 1548 1545 1542 1540 1538 1536 1533 1531 1529 1526 1523 1520 1518 1515 1513 1510 1508 1505 1503 1500 1498 1496 1494 1492 1489 1487 1486 1485 1483 1481 1480 1478 1477 1475 1473 1472 1470 1469 1468 1466 1465 1464 1463
1581 1579 1580 1578 1574 1572 1574 1574 1573 1573 1571 1568 1567 1564 1562 1557 1552 1551 1551 1548 1544 1546 1544 1539 1545 1544 1547 1566 1571 1567 1569 1569 1569 1568 1567 1567 1567 1565 1563 1560 1557 1553 1549 1546 1543 1541 1539 1537 1535 1532 1529 1527 1524 1522 1518 1516 1514 1511 1508 1505 1503 1500 1497 1495 1493 1491 1490 1487 1485 1483 1482 1480 1479 1477 1475 1473 1471 1469 1468 1466 1464 1463 1462 1461 1460 1459
1581 1580 1582 1579 1576 1577 1577 1575 1574 1573 1572 1569 1565 1562 1558 1553 1550 1548 1548 1546 1542 1547 1547 1542 1546 1547 1549 1563 1567 1565 1570 1572 1570 1569 1568 1568 1567 1565 1563 1559 1556 1551 1548 1545 1542 1541 1538 1536 1533 1530 1528 1525 1523 1520 1517 1514 1512 1508 1505 1502 1499 1497 1494 1492 1490 1488 1486 1485 1483 1481 1479 1477 1475 1473 1471 1469 1467 1466 1464 1462 1460 1458 1457 1456 1455 1454
1581 1581 1582 1580 1580 1580 1578 1575 1573 1574 1573 1567 1562 1558 1552 1548 1547 1546 1549 1551 1548 1548 1546 1544 1549 1549 1548 1560 1567 1568 1573 1575 1572 1570 1569 1569 1567 1564 1561 1557 1553 1549 1546 1544 1542 1540 1537 1534 1531 1528 1526 1523 1521 1518 1514 1512 1509 1505 1502 1499 1496 1494 1491 1489 1486 1484 1482 1481 1480 1477 1475 1473 1471 1469 1467 1465 1463 1462 1461 1458 1456 1454 1453 1452 1450 1449
1580 1580 1579 1581 1581 1580 1576 1573 1572 1572 1571 1567 1562 1557 1549 1544 1545 1545 1545 1552 1556 1552 1545 1544 1550 1549 1550 1560 1568 1571 1574 1574 1573 1573 1571 1569 1565 1562 1558 1555 1552 1548 1545 1543 1541 1537 1534 1532 1529 1526 1523 1520 1518 1515 1511 1508 1505 1501 1498 1495 1492 1490 1488 1486 1483 1481 1479 1477 1475 1473 1471 1469 1468 1465 1464 1462 1460 1458 1457 1455 1453 1450 1448 1447 1446 1446
1575 1578 1580 1580 1580 1580 1575 1569 1569 1569 1567 1566 1564 1564 1563 1561 1561 1560 1554 1554 1557 1551 1546 1548 1551 1550 1554 1563 1570 1571 1573 1574 1574 1573 1572 1569 1564 1560 1557 1554 1550 1547 1545 1542 1539 1535 1533 1530 1527 1524 1521 1518 1515 1512 1508 1505 1501 1498 1495 1492 1489 1487 1485 1483 1480 1478 1476 1474 1472 1470 1468 1466 1464 1463 1461 1459 1457 1455 1454 1452 1449 1447 1445 1443 1442 1441
1572 1574 1578 1579 1579 1579 1577 1572 1572 1571 1570 1571 1574 1578 1582 1585 1589 1585 1574 1568 1562 1552 1546 1550 1553 1553 1555 1563 1571 1571 1572 1574 1573 1572 1571 1567 1563 1559 1556 1553 1550 1547 1544 1541 1538 1535 1532 1529 1526 1523 1520 1516 1512 1509 1506 1502 1499 1496 1493 1490 1487 1485 1483 1480 1477 1475 1473 1471 1470 1468 1466 1464 1462 1460 1459 1457 1455 1453 1451 1448 1446 1443 1441 1439 1437 1437
1579 1574 1576 1578 1580 1580 1580 1582 1582 1580 1578 1578 1581 1584 1584 1589 1599 1597 1588 1584 1575 1557 1547 1552 1558 1558 1558 1565 1571 1571 1572 1573 1571 1570 1569 1565 1561 1558 1554 1552 1548 1545 1543 1540 1537 1535 1531 1528 1526 1522 1518 1514 1511 1507 1503 1500 1497 1494 1490 1488 1485 1483 1480 1477 1475 1473 1471 1470 1468 1466 1464 1462 1460 1458 1456 1454 1451 1449 1447 1444 1441 1439 1437 1435 1434 1433
1585 1577 1578 1580 1583 1583 1583 1585 1585 1582 1581 1579 1579 1583 1584 1584 1589 1591 1588 1584 1577 1560 1549 1554 1557 1554 1559 1567 1569 1570 1571 1571 1570 1568 1566 1562 1558 1555 1552 1549 1547 1544 1542 1539 1536 1534 1531 1528 1525 1520 1517 1513 1509 1506 1502 1498 1495 1492 1488 1486 1483 1481 1478 1476 1474 1471 1470 1468 1466 1464 1462 1460 1458 1455 1452 1449 1447 1445 1443 1440 1438 1436 1434 1432 1431 1430
1586 1577 1578 1581 1583 1584 1586 1586 1585 1584 1584 1582 1582 1586 1588 1585 1586 1588 1582 1570 1567 1564 1556 1557 1558 1554 1558 1564 1565 1569 1569 1567 1568 1566 1563 1560 1556 1553 1550 1547 1545 1543 1540 1538 1536 1533 1530 1527 1523 1519 1516 1512 1508 1504 1500 1497 1493 1490 1487 1484 1482 1479 1476 1474 1472 1470 1467 1465 1463 1461 1459 1457 1454 1452 1449 1446 1444 1441 1439 1437 1435 1433 1431 1430 1428 1427
1597 1583 1578 1583 1584 1584 1588 1586 1585 1589 1588 1587 1591 1590 1586 1585 1585 1588 1588 1575 1570 1571 1562 1560 1564 1562 1561 1563 1564 1567 1567 1565 1565 1562 1559 1557 1553 1551 1549 1546 1544 1542 1540 1538 1535 1532 1529 1525 1522 1518 1515 1511 1507 1502 1498 1495 1492 1489 1486 1483 1480 1478 1475 1473 1470 1468 1465 1462 1460 1458 1456 1453 1451 1448 1446 1443 1440 1438 1436 1434 1432 1430 1428 1427 1425 1424
1606 1590 1578 1584 1586 1584 1587 1586 1584 1589 1590 1591 1596 1594 1589 1590 1586 1590 1601 1595 1586 1584 1572 1563 1565 1563 1562 1566 1567 1568 1567 1564 1561 1559 1557 1554 1551 1549 1547 1545 1543 1540 1538 1536 1533 1531 1527 1524 1521 1517 1513 1509 1505 1501 1498 1494 1491 1488 1485 1482 1479 1476 1473 1471 1468 1465 1463 1460 1458 1455 1453 1451 1448 1445 1442 1440 1438 1436 1433 1431 1429 1427 1425 1424 1422 1421
1607 1597 1582 1582 1586 1583 1583 1584 1584 1589 1592 1592 1596 1596 1595 1597 1596 1600 1609 1605 1599 1600 1586 1569 1567 1564 1563 1567 1569 1569 1567 1564 1561 1558 1556 1554 1552 1550 1547 1544 1542 1539 1538 1535 1532 1529 1526 1522 1519 1516 1511 1507 1503 1500 1496 1493 1489 1486 1483 1480 1478 1475 1471 1468 1466 1463 1460 1458 1456 1453 1450 1448 1445 1443 1440 1438 1436 1433 1431 1429 1426 1424 1422 1420 1419 1417
1606 1603 1589 1579 1580 1581 1582 1585 1587 1590 1593 1592 1595 1601 1600 1598 1596 1599 1604 1603 1605 1606 1597 1588 1581 1567 1562 1567 1569 1567 1565 1564 1562 1559 1556 1555 1553 1550 1548 1545 1542 1540 1538 1535 1531 1528 1524 1521 1518 1514 1510 1506 1502 1499 1495 1491 1487 1484 1481 1478 1476 1473 1470 1466 1464 1461 1459 1456 1454 1451 1448 1445 1443 1441 1438 1436 1433 1431 1428 1426 1424 1421 1419 1417 1415 1413
1604 1602 1596 1585 1578 1577 1583 1589 1590 1590 1594 1594 1597 1602 1604 1601 1597 1597 1601 1601 1603 1605 1604 1606 1595 1569 1561 1567 1566 1565 1564 1563 1562 1560 1557 1555 1552 1550 1548 1545 1543 1540 1537 1534 1531 1527 1523 1520 1516 1512 1508 1504 1501 1498 1494 1490 1486 1482 1480 1477 1474 1471 1468 1465 1462 1460 1457 1455 1452 1449 1446 1443 1441 1438 1436 1433 1431 1428 1426 1423 1421 1419 1416 1414 1412 1410
1605 1603 1601 1591 1581 1581 1588 1592 1591 1593 1594 1593 1597 1601 1603 1603 1602 1605 1605 1599 1600 1602 1600 1602 1594 1570 1561 1565 1564 1563 1565 1563 1562 1560 1556 1553 1552 1550 1547 1545 1543 1540 1537 1534 1530 1526 1523 1519 1514 1510 1507 1503 1500 1496 1492 1489 1485 1481 1478 1475 1473 1470 1467 1465 1462 1459 1456 1453 1450 1447 1444 1442 1439 1436 1434 1431 1428 1426 1423 1421 1418 1416 1413 1411 1408 1406
1606 1604 1599 1585 1575 1583 1594 1596 1595 1596 1593 1591 1597 1601 1603 1606 1608 1608 1607 1605 1605 1602 1597 1599 1591 1566 1556 1561 1562 1563 1564 1563 1561 1559 1556 1553 1551 1549 1546 1544 1542 1539 1536 1533 1529 1526 1522 1518 1513 1509 1505 1502 1498 1495 1491 1487 1483 1480 1477 1474 1472 1468 1466 1463 1460 1457 1454 1451 1448 1445 1443 1440 1437 1434 1431 1428 1426 1423 1420 1418 1415 1413 1410 1408 1406 1404
1602 1598 1594 1584 1576 1580 1586 1588 1589 1589 1588 1591 1599 1604 1605 1609 1611 1608 1609 1612 1609 1599 1598 1601 1584 1560 1554 1559 1561 1562 1563 1561 1559 1558 1556 1553 1550 1547 1545 1542 1540 1538 1535 1531 1528 1524 1520 1516 1512 1508 1504 1501 1497 1493 1489 1485 1482 1479 1476 1473 1470 1467 1464 1461 1458 1456 1452 1449 1446 1443 1441 1438 1435 1432 1429 1426 1423 1420 1418 1415 1412 1410 1407 1405 1403 1401
1602 1598 1596 1593 1593 1591 1587 1584 1582 1582 1586 1592 1599 1606 1607 1609 1612 1609 1606 1606 1601 1596 1599 1597 1577 1557 1554 1558 1558 1560 1560 1557 1556 1555 1554 1552 1549 1546 1544 1541 1539 1537 1533 1530 1526 1522 1518 1515 1511 1507 1504 1500 1496 1492 1488 1484 1480 1477 1474 1472 1469 1466 1462 1459 1457 1454 1450 1447 1444 1441 1438 1436 1433 1430 1427 1424 1421 1418 1415 1412 1409 1407 1404 1402 1400 1397
1605 1603 1598 1596 1598 1598 1593 1588 1584 1586 1589 1591 1596 1604 1607 1608 1611 1609 1602 1598 1597 1596 1591 1584 1574 1563 1557 1557 1557 1558 1558 1556 1554 1551 1549 1548 1547 1544 1543 1541 1539 1536 1533 1529 1525 1521 1517 1513 1509 1506 1502 1499 1495 1491 1487 1483 1479 1476 1473 1470 1467 1464 1461 1458 1455 1452 1449 1446 1442 1439 1436 1433 1430 1427 1424 1421 1418 1415 1412 1409 1406 1403 1401 1399 1396 1394
1605 1601 1599 1600 1598 1595 1592 1589 1587 1590 1592 1591 1595 1601 1604 1606 1608 1608 1604 1598 1597 1596 1581 1569 1572 1572 1563 1561 1561 1559 1559 1556 1553 1551 1549 1546 1545 1543 1541 1539 1537 1534 1532 1528 1524 1520 1516 1512 1508 1504 1500 1497 1493 1489 1486 1482 1478 1475 1471 1468 1465 1463 1459 1456 1453 1450 1447 1444 1441 1437 1434 1431 1428 1425 1422 1419 1416 1413 1410 1406 1403 1400 1398 1395 1393 1391
1604 1598 1601 1604 1599 1594 1594 1590 1588 1591 1592 1592 1595 1598 1600 1602 1604 1605 1603 1596 1596 1597 1583 1570 1572 1573 1565 1562 1564 1563 1562 1558 1554 1552 1550 1547 1545 1542 1540 1537 1535 1532 1529 1526 1522 1519 1515 1510 1506 1502 1499 1495 1491 1487 1484 1480 1477 1473 1470 1467 1464 1461 1458 1455 1452 1448 1445 1442 1439 1436 1432 1429 1425 1422 1419 1416 1413 1410 1407 1404 1401 1397 1395 1392 1390 1388
1604 1599 1603 1607 1601 1593 1589 1587 1587 1590 1592 1593 1595 1595 1597 1599 1599 1599 1597 1593 1592 1591 1582 1574 1574 1572 1567 1564 1564 1563 1562 1560 1556 1553 1550 1547 1544 1541 1538 1535 1532 1530 1527 1524 1520 1517 1513 1509 1505 1501 1497 1493 1489 1485 1482 1478 1475 1471 1468 1465 1462 1458 1456 1453 1450 1447 1444 1441 1437 1434 1430 1427 1424 1420 1417 1414 1410 1407 1404 1401 1398 1395 1392 1390 1387 1385
1603 1599 1604 1610 1601 1587 1582 1586 1587 1588 1589 1590 1592 1594 1596 1597 1595 1594 1592 1589 1588 1584 1578 1576 1575 1569 1565 1565 1564 1561 1559 1557 1554 1550 1547 1544 1542 1539 1536 1533 1530 1528 1525 1521 1518 1514 1511 1507 1503 1499 1495 1491 1488 1484 1481 1477 1473 1470 1466 1463 1460 1457 1454 1452 1449 1445 1442 1439 1435 1432 1429 1425 1422 1418 1415 1412 1408 1405 1402 1399 1396 1393 1390 1387 1385 1383
1604 1602 1605 1610 1598 1580 1578 1582 1582 1587 1593 1594 1593 1592 1593 1594 1591 1589 1587 1584 1583 1580 1577 1576 1573 1565 1562 1563 1562 1558 1556 1554 1551 1547 1544 1542 1540 1538 1535 1532 1529 1526 1522 1519 1515 1512 1508 1504 1501 1497 1493 1490 1487 1483 1480 1476 1472 1468 1465 1461 1458 1455 1452 1450 1447 1443 1440 1437 1433 1430 1427 1423 1419 1416 1413 1410 1406 1403 1400 1397 1394 1391 1388 1385 1383 1381
1607 1603 1602 1607 1596 1577 1573 1578 1582 1587 1586 1581 1581 1583 1584 1588 1586 1583 1581 1578 1578 1579 1577 1575 1570 1564 1562 1562 1559 1555 1553 1551 1549 1546 1544 1541 1539 1538 1535 1532 1529 1525 1522 1518 1514 1510 1506 1502 1499 1495 1491 1488 1485 1482 1479 1475 1471 1467 1463 1460 1457 1454 1451 1448 1445 1441 1438 1435 1431 1428 1425 1421 1417 1414 1411 1408 1405 1402 1399 1395 1392 1390 1387 1384 1382 1380
1609 1604 1602 1606 1597 1579 1575 1579 1578 1573 1564 1562 1572 1578 1579 1582 1582 1579 1577 1575 1574 1576 1575 1572 1567 1564 1564 1562 1559 1555 1552 1551 1549 1546 1544 1542 1539 1537 1534 1531 1528 1524 1520 1516 1512 1509 1505 1501 1497 1494 1490 1487 1484 1481 1477 1474 1470 1466 1463 1459 1456 1453 1450 1446 1443 1439 1436 1433 1430 1426 1423 1419 1416 1412 1409 1406 1403 1400 1397 1394 1391 1389 1386 1383 1381 1379
1605 1604 1607 1611 1603 1586 1580 1577 1561 1548 1554 1569 1576 1577 1577 1578 1577 1575 1572 1569 1570 1572 1571 1569 1566 1564 1563 1562 1559 1556 1552 1550 1547 1544 1542 1541 1539 1537 1533 1529 1526 1522 1518 1514 1510 1507 1503 1499 1495 1492 1489 1486 1482 1479 1476 1472 1469 1465 1461 1458 1455 1451 1448 1444 1441 1438 1434 1431 1428 1424 1421 1418 1414 1411 1408 1405 1401 1398 1395 1393 1390 1387 1385 1383 1380 1378
1601 1602 1604 1606 1600 1587 1584 1582 1566 1551 1561 1576 1576 1575 1577 1576 1573 1572 1567 1563 1566 1568 1567 1566 1564 1562 1561 1560 1558 1555 1551 1548 1544 1541 1540 1540 1538 1535 1532 1527 1524 1520 1516 1513 1509 1505 1501 1497 1494 1490 1487 1484 1481 1477 1474 1471 1467 1464 1460 1457 1454 1450 1447 1443 1440 1436 1433 1429 1426 1423 1419 1416 1413 1410 1407 1403 1400 1397 1394 1391 1389 1387 1384 1382 1380 1378
1601 1601 1599 1596 1596 1592 1587 1584 1575 1562 1561 1570 1572 1572 1574 1573 1571 1573 1569 1562 1561 1564 1565 1563 1561 1559 1559 1557 1556 1554 1550 1545 1540 1538 1538 1538 1536 1533 1530 1526 1523 1518 1515 1512 1508 1504 1500 1496 1493 1490 1486 1483 1480 1476 1473 1469 1466 1462 1458 1455 1452 1449 1445 1442 1438 1434 1431 1428 1424 1421 1418 1415 1412 1408 1405 1402 1399 1396 1393 1391 1388 1386 1384 1382 1380 1377
1601 1600 1596 1591 1594 1598 1592 1582 1576 1563 1552 1557 1567 1569 1571 1571 1570 1574 1573 1564 1558 1560 1562 1560 1558 1556 1555 1554 1553 1551 1548 1543 1537 1535 1537 1536 1533 1531 1527 1524 1521 1516 1513 1510 1505 1501 1498 1494 1491 1488 1485 1481 1478 1475 1472 1468 1464 1460 1457 1453 1451 1447 1444 1440 1437 1433 1429 1426 1423 1420 1417 1414 1411 1407 1404 1401 1398 1395 1392 1390 1388 1386 1384 1381 1379 1377
1601 1600 1599 1596 1594 1597 1595 1588 1583 1569 1554 1555 1565 1568 1569 1569 1569 1572 1568 1557 1553 1558 1558 1557 1555 1553 1551 1551 1549 1547 1545 1540 1534 1533 1534 1533 1530 1528 1525 1521 1518 1514 1510 1507 1503 1499 1496 1492 1489 1486 1483 1480 1476 1473 1470 1466 1463 1459 1456 1452 1449 1446 1442 1439 1435 1432 1428 1424 1421 1419 1416 1413 1410 1407 1403 1400 1398 1395 1392 1389 1387 1385 1383 1381 1379 1376
1600 1600 1598 1594 1591 1595 1596 1591 1581 1569 1558 1558 1564 1566 1566 1567 1570 1568 1555 1544 1549 1556 1554 1553 1553 1550 1548 1548 1546 1544 1544 1540 1534 1531 1530 1529 1527 1525 1522 1518 1515 1512 1508 1505 1502 1498 1494 1491 1487 1484 1481 1478 1474 1471 1468 1464 1461 1458 1454 1451 1448 1444 1441 1438 1434 1431 1427 1423 1420 1417 1415 1412 1409 1406 1403 1400 1397 1395 1392 1389 1386 1384 1383 1381 1378 1376
1598 1601 1600 1594 1591 1594 1596 1590 1577 1563 1556 1558 1562 1563 1565 1566 1565 1558 1547 1544 1549 1552 1550 1550 1549 1547 1546 1546 1544 1543 1541 1538 1535 1531 1528 1526 1524 1521 1519 1517 1513 1510 1506 1502 1499 1496 1492 1489 1486 1483 1480 1476 1473 1470 1466 1463 1459 1456 1453 1450 1446 1443 1440 1436 1433 1429 1426 1422 1419 1416 1414 1411 1408 1405 1402 1399 1396 1394 1391 1389 1386 1384 1382 1380 1377 1375
1591 1595 1596 1595 1590 1589 1594 1592 1575 1557 1553 1557 1559 1561 1564 1562 1555 1549 1546 1547 1548 1548 1548 1547 1546 1545 1544 1543 1542 1540 1536 1534 1532 1529 1526 1524 1521 1518 1516 1514 1511 1508 1504 1501 1498 1494 1491 1488 1485 1482 1479 1476 1472 1469 1465 1462 1458 1455 1452 1448 1445 1442 1438 1435 1431 1428 1424 1421 1418 1415 1412 1409 1407 1404 1401 1398 1396 1393 1390 1388 1386 1384 1381 1379 1377 1374
1586 1583 1581 1584 1583 1584 1591 1587 1566 1547 1548 1555 1556 1557 1559 1555 1548 1545 1546 1547 1546 1546 1546 1544 1543 1542 1541 1539 1538 1536 1533 1531 1529 1526 1524 1522 1519 1516 1514 1511 1508 1505 1502 1499 1496 1492 1489 1486 1483 1480 1477 1474 1471 1468 1464 1461 1457 1454 1450 1447 1444 1440 1437 1433 1430 1426 1423 1420 1417 1414 1411 1408 1406 1403 1400 1397 1395 1392 1389 1387 1385 1383 1381 1378 1376 1373
1585 1579 1572 1575 1579 1579 1576 1567 1550 1542 1547 1552 1551 1551 1551 1547 1545 1545 1545 1545 1544 1543 1543 1542 1540 1539 1537 1536 1534 1532 1529 1528 1526 1524 1522 1519 1517 1514 1511 1509 1506 1503 1500 1497 1494 1490 1487 1484 1481 1479 1476 1473 1470 1467 1464 1460 1456 1452 1449 1446 1442 1439 1435 1432 1428 1425 1422 1418 1415 1413 1410 1407 1405 1402 1399 1396 1393 1391 1389 1386 1384 1382 1380 1378 1376 1373
1575 1574 1570 1571 1574 1571 1562 1552 1545 1544 1547 1547 1546 1545 1545 1543 1543 1543 1543 1542 1542 1541 1540 1539 1537 1536 1534 1533 1530 1528 1527 1525 1523 1521 1519 1517 1515 1512 1509 1506 1504 1501 1498 1495 1492 1489 1486 1482 1479 1476 1474 1472 1469 1465 1463 1459 1455 1451 1448 1445 1441 1438 1434 1430 1427 1423 1420 1417 1414 1411 1408 1406 1403 1401 1398 1395 1392 1390 1388 1385 1384 1381 1379 1377 1375 1373
1571 1573 1573 1571 1570 1566 1556 1547 1545 1544 1543 1542 1542 1541 1541 1541 1540 1540 1540 1539 1539 1538 1537 1536 1534 1533 1531 1529 1527 1526 1524 1522 1520 1519 1517 1514 1512 1510 1507 1504 1502 1499 1496 1493 1490 1487 1484 1481 1478 1475 1472 1470 1467 1464 1461 1458 1454 1450 1447 1443 1440 1437 1433 1429 1425 1422 1419 1415 1412 1410 1407 1405 1402 1399 1397 1394 1392 1389 1387 1385 1383 1380 1378 1376 1375 1374
1570 1572 1572 1570 1569 1565 1552 1542 1542 1543 1540 1540 1540 1538 1538 1538 1537 1537 1537 1535 1535 1535 1534 1533 1531 1529 1528 1526 1524 1522 1521 1519 1518 1516 1514 1512 1510 1507 1505 1502 1499 1497 1494 1491 1488 1485 1482 1479 1476 1473 1470 1468 1465 1462 1459 1456 1453 1450 1446 1443 1439 1436 1432 1429 1424 1421 1418 1415 1411 1408 1406 1403 1401 1398 1395 1393 1391 1389 1386 1384 1382 1380 1377 1376 1375 1373
1568 1571 1569 1566 1565 1560 1547 1538 1540 1540 1537 1537 1537 1535 1534 1534 1533 1533 1533 1532 1532 1531 1530 1529 1528 1526 1525 1523 1521 1519 1517 1516 1515 1513 1512 1510 1507 1505 1502 1500 1497 1494 1492 1489 1486 1483 1480 1478 1475 1472 1469 1466 1462 1460 1457 1454 1451 1448 1445 1442 1438 1434 1431 1427 1424 1421 1417 1413 1410 1408 1405 1403 1400 1397 1395 1392 1390 1388 1385 1383 1381 1379 1377 1376 1375 1373
1567 1568 1564 1561 1560 1554 1544 1538 1538 1536 1532 1531 1532 1531 1531 1531 1530 1530 1530 1529 1528 1527 1526 1525 1524 1523 1522 1520 1518 1516 1514 1513 1512 1510 1509 1507 1505 1502 1500 1497 1495 1492 1489 1487 1484 1482 1479 1476 1473 1471 1468 1464 1461 1458 1455 1452 1449 1446 1443 1440 1437 1433 1429 1426 1423 1420 1416 1412 1410 1407 1404 1402 1399 1396 1394 1392 1390 1387 1385 1383 1380 1378 1377 1376 1374 1373
1563 1560 1557 1559 1556 1547 1538 1534 1534 1532 1528 1526 1526 1528 1528 1527 1527 1527 1526 1525 1524 1523 1523 1521 1520 1519 1518 1517 1515 1513 1511 1510 1509 1507 1505 1504 1503 1500 1497 1495 1492 1490 1488 1485 1483 1480 1478 1475 1472 1470 1467 1464 1461 1458 1454 1451 1448 1445 1442 1439 1435 1432 1428 1424 1421 1418 1415 1412 1409 1406 1404 1401 1399 1396 1394 1391 1388 1386 1385 1384 1381 1379 1376 1375 1373 1372
1549 1545 1546 1549 1544 1534 1528 1528 1530 1530 1526 1523 1524 1525 1524 1523 1524 1523 1522 1522 1521 1520 1519 1518 1516 1515 1514 1513 1512 1510 1508 1507 1506 1504 1502 1501 1500 1498 1496 1493 1490 1488 1486 1484 1481 1479 1477 1474 1472 1469 1467 1464 1461 1457 1453 1450 1447 1444 1441 1438 1434 1431 1427 1424 1420 1417 1414 1411 1409 1406 1403 1401 1398 1396 1393 1391 1388 1385 1383 1383 1381 1379 1377 1374 1372 1370